Weather History for Glendive, MT

Change the Weather History Date:

Tuesday, March 5, 2013

  Actual Average Record
Temperature  
Mean Temperature 10 °F -  
Max Temperature 17 °F 28 °F 62 °F (2005)
Min Temperature 3 °F 10 °F -7 °F (2003)
Degree Days  
Heating Degree Days 55    
Moisture  
Dew Point 6 °F    
Average Humidity 79    
Maximum Humidity 92    
Minimum Humidity 67    
Precipitation  
Precipitation 0.00 in - - ()
Sea Level Pressure  
Sea Level Pressure 30.32 in    
Wind  
Wind Speed 9 mph (NW)    
Max Wind Speed 16 mph    
Max Gust Speed 22 mph    
Visibility 10 miles    
Events      
Averages and records for this station are not official NWS values.
T = Trace of Precipitation, MM = Missing Value Source: NWS Daily Summary

Daily Weather History Graph

Daily Weather History Graph

Search for Another Location

Airport:

Trip Planner

Search our weather history database for the weather conditions in past years. The results will help you decide how hot, cold, wet, or windy it might be!

Date:

Astronomy

Mar. 05, 2013 Rise Set
Actual Time 6:31 AM MST 5:50 PM MST
Civil Twilight 6:00 AM MST 6:21 PM MST
Nautical Twilight 5:25 AM MST 6:56 PM MST
Astronomical Twilight 4:49 AM MST 7:32 PM MST
Moon 2:03 AM MST (3/5) 11:14 AM MST (3/5)
Length of Visible Light 12h 20m
Length of Day
11h 19m
Last Quarter, 40% of the Moon is Illuminated
Mar 5
Last Quarter
Mar 11
New
Mar 19
First Quarter
Mar 27
Full
Apr 2
Last Quarter

Hourly Weather History & Observations

Time (MST) Temp. Windchill Dew Point Humidity Pressure Visibility Wind Dir Wind Speed Gust Speed Precip Events Conditions
12:35 AM 10.4 °F -6.6 °F 5.0 °F 79% 30.33 in 10.0 mi NW 16.1 mph - N/A   Overcast
12:55 AM 10.4 °F -6.6 °F 5.0 °F 79% 30.34 in 10.0 mi NW 16.1 mph - N/A   Overcast
1:15 AM 10.4 °F -6.6 °F 5.0 °F 79% 30.35 in 10.0 mi NW 16.1 mph 21.9 mph N/A   Overcast
1:35 AM 10.4 °F -5.4 °F 5.0 °F 79% 30.35 in 10.0 mi NW 13.8 mph - N/A   Overcast
1:55 AM 10.4 °F -4.8 °F 5.0 °F 79% 30.35 in 10.0 mi NW 12.7 mph - N/A   Overcast
2:15 AM 10.4 °F -3.3 °F 5.0 °F 79% 30.36 in 10.0 mi NW 10.4 mph - N/A   Overcast
2:35 AM 10.4 °F -3.3 °F 5.0 °F 79% 30.36 in 10.0 mi NW 10.4 mph - N/A   Overcast
2:55 AM 10.4 °F -4.1 °F 5.0 °F 79% 30.35 in 10.0 mi NW 11.5 mph - N/A   Overcast
3:15 AM 8.6 °F -4.7 °F 3.2 °F 79% 30.34 in 10.0 mi NNW 9.2 mph - N/A   Mostly Cloudy
3:35 AM 6.8 °F -3.5 °F -0.4 °F 72% 30.35 in 10.0 mi WNW 5.8 mph - N/A   Partly Cloudy
4:15 AM 5.0 °F -8.1 °F -2.2 °F 72% 30.35 in 10.0 mi West 8.1 mph - N/A   Overcast
4:35 AM 5.0 °F -9.1 °F 3.2 °F 92% 30.35 in 10.0 mi WNW 9.2 mph - N/A   Mostly Cloudy
4:55 AM 3.2 °F -13.9 °F -0.4 °F 85% 30.36 in 10.0 mi West 12.7 mph - N/A   Scattered Clouds
5:15 AM 5.0 °F -11.6 °F 1.4 °F 85% 30.36 in 10.0 mi West 12.7 mph - N/A   Mostly Cloudy
5:35 AM 6.8 °F -8.6 °F -0.4 °F 72% 30.37 in 10.0 mi West 11.5 mph - N/A   Overcast
5:55 AM 6.8 °F -6.9 °F 1.4 °F 79% 30.38 in 10.0 mi WNW 9.2 mph - N/A   Overcast
6:15 AM 6.8 °F -4.8 °F 3.2 °F 85% 30.38 in 10.0 mi West 6.9 mph - N/A   Overcast
6:35 AM 6.8 °F -5.9 °F 3.2 °F 85% 30.38 in 10.0 mi WNW 8.1 mph - N/A   Overcast
6:55 AM 6.8 °F -4.8 °F 1.4 °F 79% 30.38 in 10.0 mi West 6.9 mph - N/A   Overcast
7:15 AM 6.8 °F -0.1 °F 1.4 °F 79% 30.38 in 10.0 mi NW 3.5 mph - N/A   Overcast
7:35 AM 6.8 °F -4.8 °F 3.2 °F 85% 30.38 in 10.0 mi West 6.9 mph - N/A   Mostly Cloudy
7:55 AM 6.8 °F -2.0 °F 1.4 °F 79% 30.38 in 10.0 mi NW 4.6 mph - N/A   Partly Cloudy
8:15 AM 6.8 °F -0.1 °F 3.2 °F 85% 30.38 in 10.0 mi NNW 3.5 mph - N/A   Clear
8:35 AM 8.6 °F - -0.4 °F 67% 30.39 in 10.0 mi Calm Calm - N/A   Clear
8:55 AM 8.6 °F 2.0 °F 1.4 °F 73% 30.39 in 10.0 mi NNE 3.5 mph - N/A   Clear
9:35 AM 12.2 °F 6.1 °F 3.2 °F 67% 30.40 in 10.0 mi South 3.5 mph - N/A   Clear
9:55 AM 14.0 °F 8.2 °F 6.8 °F 73% 30.39 in 10.0 mi SW 3.5 mph - N/A   Clear
10:15 AM 15.8 °F 8.6 °F 6.8 °F 68% 30.38 in 10.0 mi SW 4.6 mph - N/A   Clear
10:35 AM 15.8 °F 10.2 °F 8.6 °F 73% 30.37 in 10.0 mi SSW 3.5 mph - N/A   Clear
10:55 AM 15.8 °F - 6.8 °F 68% 30.37 in 10.0 mi Calm Calm - N/A   Clear
11:15 AM 14.0 °F 5.1 °F 6.8 °F 73% 30.37 in 10.0 mi South 5.8 mph - N/A   Clear
11:35 AM 14.0 °F 2.9 °F 6.8 °F 73% 30.37 in 10.0 mi South 8.1 mph - N/A   Clear
11:55 AM 14.0 °F 3.9 °F 8.6 °F 79% 30.38 in 10.0 mi South 6.9 mph - N/A   Clear
12:15 PM 15.8 °F 8.6 °F 8.6 °F 73% 30.36 in 10.0 mi South 4.6 mph - N/A   Clear
12:36 PM 15.8 °F 6.1 °F 8.6 °F 73% 30.36 in 10.0 mi South 6.9 mph - N/A   Clear
1:15 PM 15.8 °F 7.2 °F 10.4 °F 79% 30.35 in 10.0 mi South 5.8 mph - N/A   Partly Cloudy
1:55 PM 17.6 °F 8.2 °F 8.6 °F 68% 30.33 in 10.0 mi South 6.9 mph - N/A   Clear
2:15 PM 17.6 °F 9.3 °F 10.4 °F 73% 30.32 in 10.0 mi South 5.8 mph - N/A   Clear
2:35 PM 17.6 °F 8.2 °F 10.4 °F 73% 30.32 in 10.0 mi South 6.9 mph - N/A   Clear
2:55 PM 17.6 °F 7.3 °F 10.4 °F 73% 30.31 in 10.0 mi South 8.1 mph - N/A   Clear
3:15 PM 17.6 °F 9.3 °F 10.4 °F 73% 30.30 in 10.0 mi South 5.8 mph - N/A   Clear
3:35 PM 17.6 °F 7.3 °F 10.4 °F 73% 30.30 in 10.0 mi South 8.1 mph - N/A   Partly Cloudy
4:15 PM 17.6 °F 9.3 °F 10.4 °F 73% 30.29 in 10.0 mi SSE 5.8 mph - N/A   Clear
4:35 PM 17.6 °F 9.3 °F 10.4 °F 73% 30.27 in 10.0 mi SSE 5.8 mph - N/A   Clear
4:55 PM 15.8 °F 7.2 °F 10.4 °F 79% 30.28 in 10.0 mi SSE 5.8 mph - N/A   Clear
5:15 PM 15.8 °F 7.2 °F 10.4 °F 79% 30.28 in 10.0 mi SSE 5.8 mph - N/A   Clear
6:15 PM 12.2 °F 2.9 °F 8.6 °F 85% 30.26 in 10.0 mi ENE 5.8 mph - N/A   Clear
6:35 PM 12.2 °F 2.9 °F 8.6 °F 85% 30.26 in 10.0 mi East 5.8 mph - N/A   Clear
6:55 PM 12.2 °F 2.9 °F 6.8 °F 79% 30.26 in 10.0 mi East 5.8 mph - N/A   Clear
7:15 PM 12.2 °F 4.3 °F 8.6 °F 85% 30.26 in 10.0 mi NE 4.6 mph - N/A   Clear
7:35 PM 12.2 °F 2.9 °F 8.6 °F 85% 30.25 in 10.0 mi ENE 5.8 mph - N/A   Clear
7:55 PM 12.2 °F 1.7 °F 8.6 °F 85% 30.25 in 10.0 mi ENE 6.9 mph - N/A   Clear
8:15 PM 12.2 °F 4.3 °F 8.6 °F 85% 30.25 in 10.0 mi ENE 4.6 mph - N/A   Clear
8:35 PM 12.2 °F 6.1 °F 6.8 °F 79% 30.25 in 10.0 mi NE 3.5 mph - N/A   Clear
8:55 PM 12.2 °F 2.9 °F 6.8 °F 79% 30.25 in 10.0 mi NE 5.8 mph - N/A   Clear
9:15 PM 12.2 °F 1.7 °F 8.6 °F 85% 30.24 in 10.0 mi NE 6.9 mph - N/A   Clear
9:35 PM 12.2 °F 0.7 °F 8.6 °F 85% 30.24 in 10.0 mi ENE 8.1 mph - N/A   Clear
9:55 PM 12.2 °F 0.7 °F 8.6 °F 85% 30.23 in 10.0 mi NE 8.1 mph - N/A   Clear
10:15 PM 12.2 °F 2.9 °F 8.6 °F 85% 30.23 in 10.0 mi ENE 5.8 mph - N/A   Clear
10:35 PM 12.2 °F 1.7 °F 6.8 °F 79% 30.23 in 10.0 mi ENE 6.9 mph - N/A   Clear
10:55 PM 12.2 °F 2.9 °F 6.8 °F 79% 30.22 in 10.0 mi ENE 5.8 mph - N/A   Clear
11:15 PM 12.2 °F 1.7 °F 8.6 °F 85% 30.21 in 10.0 mi ENE 6.9 mph - N/A   Clear
11:35 PM 12.2 °F -0.2 °F 10.4 °F 92% 30.20 in 10.0 mi NE 9.2 mph - N/A   Clear
11:55 PM 12.2 °F 0.7 °F 8.6 °F 85% 30.20 in 10.0 mi NE 8.1 mph - N/A   Clear